User: anonymous
Location: Unspecified
(0.0000°N, 0.0000°E)
Time: 21:14:28
(UTC+02:00)
Language:

Cosmos 773 Rocket - Orbit

View from above orbital plane
View from above orbital plane
View from above satellite
View from above satellite

Ground track
Ground track

The orbit data is extracted from the following two-line orbital elements,

1 08344U 75094B   14210.48503228  .00000152  00000-0  57788-4 0  5223
2 08344 074.0570 266.8831 0020959 070.2955 028.9587 14.38767519 34132
Epoch (UTC): 29 July 2014 11:38:26
Eccentricity: 0.0020959
inclination: 74.0570°
perigee height: 747 km
apogee height: 777 km
right ascension of ascending node: 266.8831°
argument of perigee: 70.2955°
revolutions per day: 14.38767519
mean anomaly at epoch: 28.9587°
orbit number at epoch: 3413

The dashed part of the orbit path shows where the satellite is in the earth's shadow,  

DLR